M I D A S
Marine Information and Data Acquisition System
Tripno 1510 of the Zeeleeuw from 2008-06-25 06:06:34 to 2008-06-25 12:09:04
Back to CruiseResearch ActivitiesStationsMapUnderway DataData graphs

EquipmentUnitsComment
TimeDGPSUTC
LatitudeDGPSDM.mWGS84
LongitudeDGPSDM.mWGS84
TemperatureSBE03/SBE38deg celciusITS90
ConductivitySBE21S/mITS90
SalinitySBE21 Practical Salinity Units
ChlorophylAChelsea fluorimeterg/lCalibrated in Aceton
Missing or incorrect values are displayed as -999
Sea surface data collected by the RV Zeeleeuw from 2008-06-25 06:06:44 to 2008-06-25 12:12:41
Time Latitude Longitude Temperature Conductivity Salinity ChlorophylA
2008-06-25 06:07:49 51°13.648 2°55.973 21.097 0.01185 0.062814 -1.627401
2008-06-25 06:08:49 51°13.688 2°55.859 21.1032 0.01185 0.062815 -1.627401
2008-06-25 06:09:49 51°13.742 2°55.744 21.1091 0.01185 0.062817 -1.627401
2008-06-25 06:10:49 51°13.811 2°55.651 21.1165 0.01185 0.062819 -1.627401
2008-06-25 06:11:49 51°13.893 2°55.631 21.1242 0.01185 0.062822 -1.662225
2008-06-25 06:12:49 51°13.939 2°55.662 21.126 0.01185 0.062825 -1.627401
2008-06-25 06:13:49 51°13.98 2°55.567 21.0971 0.01185 0.062829 -1.627401
2008-06-25 06:14:49 51°14.104 2°55.439 21.1223 0.01185 0.062832 -1.662225
2008-06-25 06:15:49 51°14.241 2°55.276 21.1324 0.01185 0.062833 -1.627401
2008-06-25 06:16:49 51°14.367 2°55.049 21.1377 0.01185 0.062835 -1.627401
2008-06-25 06:17:49 51°14.491 2°54.793 21.1068 0.01185 0.062836 -1.662225
2008-06-25 06:18:49 51°14.571 2°54.505 21.1041 0.01185 0.062839 -1.627401
2008-06-25 06:19:49 51°14.653 2°54.218 21.0257 0.01185 0.062842 -1.662225
2008-06-25 06:20:49 51°14.716 2°53.923 21.1158 0.01185 0.062845 -1.662225
2008-06-25 06:21:49 51°14.712 2°53.615 21.0189 0.01185 0.062848 -1.662225
2008-06-25 06:22:49 51°14.723 2°53.303 21.0614 0.01185 0.062852 -1.627401
2008-06-25 06:23:49 51°14.748 2°52.992 21.06 0.01185 0.062857 -1.627401
2008-06-25 06:24:49 51°14.774 2°52.679 21.1148 0.01185 0.062862 -1.627401
2008-06-25 06:25:49 51°14.789 2°52.366 21.1118 0.01185 0.062867 -1.627401
2008-06-25 06:26:49 51°14.802 2°52.05 21.1189 0.01185 0.062872 -1.662225
2008-06-25 06:27:49 51°14.819 2°51.732 21.0739 0.01185 0.062876 -1.627401
2008-06-25 06:28:49 51°14.849 2°51.417 21.0903 0.01185 0.062881 -1.627401
2008-06-25 06:29:49 51°14.878 2°51.102 21.1525 0.01185 0.062885 -1.627401
2008-06-25 06:30:49 51°14.904 2°50.787 21.1235 0.01185 0.06289 -1.627401
2008-06-25 06:31:49 51°14.93 2°50.474 21.1547 0.01185 0.062895 -1.627401
2008-06-25 06:32:49 51°14.947 2°50.16 21.1324 0.01185 0.0629 -1.662225
2008-06-25 06:33:49 51°14.966 2°49.844 21.0894 0.01185 0.062905 -1.627401
2008-06-25 06:34:49 51°14.991 2°49.529 21.1922 0.01185 0.062911 -1.662225
2008-06-25 06:35:49 51°15.007 2°49.217 21.2186 0.01185 0.062916 -1.627401
2008-06-25 06:36:49 51°15.025 2°48.902 21.2038 0.01185 0.062921 -1.627401
2008-06-25 06:37:49 51°15.043 2°48.588 21.1414 0.01185 0.062927 -1.627401
2008-06-25 06:38:49 51°15.071 2°48.272 21.163 0.01185 0.062932 -1.627401
2008-06-25 06:39:49 51°15.085 2°47.955 21.0992 0.01185 0.062938 -1.627401
2008-06-25 06:40:49 51°15.111 2°47.641 21.1107 0.01185 0.062944 -1.627401
2008-06-25 06:41:49 51°15.139 2°47.329 21.1222 0.01185 0.062951 -1.627401
2008-06-25 06:42:49 51°15.16 2°47.014 21.1941 0.01185 0.062957 -1.627401
2008-06-25 06:43:49 51°15.173 2°46.696 21.224 0.01185 0.062962 -1.662225
2008-06-25 06:44:49 51°15.188 2°46.378 21.2192 0.01185 0.062967 -1.627401
2008-06-25 06:45:49 51°15.211 2°46.059 21.1949 0.01185 0.062973 -1.627401
2008-06-25 06:46:49 51°15.237 2°45.743 21.1336 0.01185 0.062978 -1.627401
2008-06-25 06:47:49 51°15.259 2°45.427 21.1376 0.01185 0.062983 -1.627401
2008-06-25 06:48:49 51°15.283 2°45.112 21.191 0.01185 0.062991 -1.627401
2008-06-25 06:49:49 51°15.3 2°44.797 21.1959 0.01185 0.062997 -1.662225
2008-06-25 06:50:49 51°15.326 2°44.482 21.1786 0.01185 0.063005 -1.627401
2008-06-25 06:51:49 51°15.348 2°44.169 21.2235 0.01185 0.063014 -1.627401
2008-06-25 06:52:49 51°15.375 2°43.857 21.2117 0.01185 0.063025 -1.662225
2008-06-25 06:53:49 51°15.396 2°43.546 21.2184 0.01185 0.063036 -1.627401
2008-06-25 06:54:49 51°15.42 2°43.233 21.2408 0.01185 0.063047 -1.627401
2008-06-25 06:55:49 51°15.442 2°42.916 21.2613 0.01185 0.063058 -1.627401
2008-06-25 06:56:49 51°15.463 2°42.598 21.2614 0.01185 0.063069 -1.627401
2008-06-25 06:57:49 51°15.483 2°42.282 21.2658 0.01185 0.063081 -1.627401
2008-06-25 06:58:49 51°15.509 2°41.968 21.2596 0.011748 0.062592 -1.627401
2008-06-25 06:59:49 51°15.546 2°41.657 21.2451 0.011748 0.062599 -1.627401
2008-06-25 07:00:49 51°15.657 2°41.381 21.233 0.011748 0.062606 -1.627401
2008-06-25 07:01:49 51°15.769 2°41.102 21.301 0.011748 0.062613 -1.627401
2008-06-25 07:02:49 51°15.875 2°40.818 21.279 0.011748 0.06262 -1.627401
2008-06-25 07:03:49 51°15.977 2°40.533 21.2606 0.011748 0.062626 -1.627401
2008-06-25 07:04:49 51°16.071 2°40.244 21.3046 0.011748 0.062632 -1.627401
2008-06-25 07:05:49 51°16.169 2°39.958 21.2704 0.011748 0.062638 -1.627401
2008-06-25 07:06:49 51°16.259 2°39.665 21.2904 0.011748 0.062643 -1.627401
2008-06-25 07:07:49 51°16.353 2°39.376 21.3468 0.011748 0.062648 -1.627401
2008-06-25 07:08:49 51°16.452 2°39.092 21.2585 0.011748 0.062652 -1.662225
2008-06-25 07:09:49 51°16.558 2°38.813 21.3534 0.011748 0.062656 -1.627401
2008-06-25 07:10:49 51°16.656 2°38.526 21.3081 0.011748 0.062661 -1.627401
2008-06-25 07:11:49 51°16.762 2°38.244 21.3064 0.011748 0.062664 -1.627401
2008-06-25 07:12:49 51°16.868 2°37.959 21.3279 0.011748 0.062667 -1.627401
2008-06-25 07:13:49 51°16.975 2°37.68 21.2805 0.011748 0.06267 -1.627401
2008-06-25 07:14:49 51°17.08 2°37.402 21.3374 0.011748 0.062673 -1.627401
2008-06-25 07:15:49 51°17.187 2°37.124 21.3348 0.011748 0.062676 -1.627401
2008-06-25 07:16:49 51°17.288 2°36.842 21.3205 0.011748 0.062678 -1.627401
2008-06-25 07:17:49 51°17.389 2°36.557 21.3687 0.011748 0.06268 -1.627401
2008-06-25 07:18:49 51°17.479 2°36.264 21.3422 0.011748 0.062681 -1.627401
2008-06-25 07:19:49 51°17.569 2°35.972 21.3586 0.011748 0.062681 -1.627401
2008-06-25 07:20:49 51°17.663 2°35.684 21.3596 0.011748 0.062683 -1.627401
2008-06-25 07:21:49 51°17.754 2°35.393 21.4096 0.011748 0.062685 -1.627401
2008-06-25 07:22:49 51°17.847 2°35.106 21.3725 0.011748 0.062688 -1.627401
2008-06-25 07:23:49 51°17.931 2°34.827 21.4774 0.011748 0.062692 -1.627401
2008-06-25 07:24:50 51°17.967 2°34.546 21.4244 0.011748 0.062696 -1.627401
2008-06-25 07:25:49 51°17.979 2°34.344 21.4881 0.011748 0.062699 -1.627401
2008-06-25 07:26:49 51°17.984 2°34.22 21.5335 0.011748 0.062704 -1.627401
2008-06-25 07:27:49 51°17.967 2°34.168 21.5495 0.011748 0.062708 -1.627401
2008-06-25 07:28:49 51°17.952 2°34.138 21.5742 0.011748 0.062709 -1.627401
2008-06-25 07:29:49 51°17.944 2°34.103 21.5823 0.011748 0.062712 -1.627401
2008-06-25 07:30:49 51°17.947 2°34.044 21.4428 0.011748 0.062713 -1.662225
2008-06-25 07:31:49 51°18.03 2°34.048 21.4839 0.011748 0.062716 -1.627401
2008-06-25 07:32:49 51°18.095 2°34.268 21.5587 0.011748 0.062721 -1.627401
2008-06-25 07:33:49 51°18.186 2°34.564 21.4676 0.011748 0.062724 -1.627401
2008-06-25 07:34:49 51°18.276 2°34.854 21.4461 0.011748 0.062728 -1.627401
2008-06-25 07:35:49 51°18.33 2°35.179 21.4799 0.011748 0.062732 -1.627401
2008-06-25 07:36:49 51°18.377 2°35.506 21.4797 0.011748 0.062735 -1.627401
2008-06-25 07:37:49 51°18.41 2°35.835 21.4682 0.011748 0.062739 -1.627401
2008-06-25 07:38:49 51°18.434 2°36.163 21.4908 0.011748 0.062742 -1.627401
2008-06-25 07:39:49 51°18.468 2°36.488 21.4804 0.011748 0.062745 -1.627401
2008-06-25 07:40:49 51°18.501 2°36.811 21.5357 0.011748 0.062749 -1.627401
2008-06-25 07:41:49 51°18.537 2°37.136 21.5378 0.011748 0.062751 -1.627401
2008-06-25 07:42:49 51°18.567 2°37.461 21.5459 0.011748 0.062755 -1.627401
2008-06-25 07:43:49 51°18.586 2°37.789 21.5485 0.011748 0.062757 -1.627401
2008-06-25 07:44:49 51°18.61 2°38.117 21.5442 0.011748 0.06276 -1.662225
2008-06-25 07:45:49 51°18.64 2°38.444 21.5473 0.011748 0.062763 -1.627401
2008-06-25 07:46:49 51°18.66 2°38.773 21.5564 0.01185 0.06327 -1.627401
2008-06-25 07:47:49 51°18.685 2°39.092 21.5782 0.011748 0.062769 -1.627401
2008-06-25 07:48:49 51°18.685 2°39.242 21.6591 0.011748 0.062771 -1.627401
2008-06-25 07:49:49 51°18.681 2°39.33 21.6874 0.011748 0.062774 -1.627401
2008-06-25 07:50:49 51°18.704 2°39.395 21.7097 0.011748 0.062777 -1.627401
2008-06-25 07:51:49 51°18.739 2°39.431 21.7265 0.011748 0.062779 -1.627401
2008-06-25 07:52:49 51°18.775 2°39.441 21.7393 0.011748 0.062781 -1.627401
2008-06-25 07:53:49 51°18.806 2°39.433 21.7561 0.011748 0.062783 -1.627401
2008-06-25 07:54:49 51°18.83 2°39.414 21.7746 0.011748 0.062786 -1.627401
2008-06-25 07:55:49 51°18.846 2°39.39 21.7852 0.011748 0.062787 -1.627401
2008-06-25 07:56:49 51°18.852 2°39.367 21.7982 0.011748 0.06279 -1.627401
2008-06-25 07:57:49 51°18.854 2°39.362 21.8122 0.011748 0.062793 -1.627401
2008-06-25 07:58:49 51°18.849 2°39.357 21.6703 0.011748 0.062795 -1.627401
2008-06-25 07:59:49 51°18.848 2°39.314 21.7932 0.011748 0.062798 -1.627401
2008-06-25 08:00:49 51°18.86 2°39.312 21.8221 0.011748 0.062802 -1.627401
2008-06-25 08:01:49 51°18.875 2°39.319 21.8334 0.011748 0.062805 -1.627401
2008-06-25 08:02:49 51°18.889 2°39.331 21.8272 0.011748 0.062807 -1.627401
2008-06-25 08:03:49 51°18.902 2°39.345 21.8434 0.011748 0.06281 -1.627401
2008-06-25 08:04:49 51°18.912 2°39.362 21.8424 0.011748 0.062813 -1.627401
2008-06-25 08:05:49 51°18.92 2°39.38 21.8402 0.011748 0.062815 -1.627401
2008-06-25 08:06:49 51°18.935 2°39.394 21.8598 0.011748 0.062819 -1.627401
2008-06-25 08:07:49 51°18.966 2°39.351 21.8546 0.011748 0.062823 -1.627401
2008-06-25 08:08:49 51°18.956 2°39.294 21.8763 0.011748 0.062827 -1.627401
2008-06-25 08:09:49 51°18.929 2°39.28 21.7533 0.011748 0.062831 -1.627401
2008-06-25 08:10:49 51°18.912 2°39.286 21.7564 0.011748 0.062837 -1.627401
2008-06-25 08:11:49 51°18.903 2°39.297 21.8453 0.011748 0.062844 -1.627401
2008-06-25 08:12:49 51°18.9 2°39.31 21.7801 0.011748 0.06285 -1.627401
2008-06-25 08:13:49 51°18.9 2°39.326 21.7899 0.011748 0.062855 -1.627401
2008-06-25 08:14:49 51°18.902 2°39.344 21.8469 0.011748 0.06286 -1.662225
2008-06-25 08:15:49 51°18.906 2°39.363 21.806 0.011748 0.062866 -1.627401
2008-06-25 08:16:49 51°18.911 2°39.384 21.8254 0.011748 0.062871 -1.627401
2008-06-25 08:17:49 51°18.917 2°39.405 21.8083 0.011748 0.062876 -1.627401
2008-06-25 08:18:49 51°18.923 2°39.426 21.8141 0.011748 0.06288 -1.627401
2008-06-25 08:19:49 51°18.929 2°39.447 21.8333 0.011748 0.062885 -1.627401
2008-06-25 08:20:49 51°18.934 2°39.467 21.8294 0.011748 0.06289 -1.627401
2008-06-25 08:21:49 51°18.938 2°39.486 21.8783 0.011748 0.062895 -1.627401
2008-06-25 08:22:49 51°18.942 2°39.504 21.8386 0.011748 0.062899 -1.627401
2008-06-25 08:23:49 51°18.947 2°39.522 21.8694 0.011748 0.062903 -1.627401
2008-06-25 08:24:49 51°18.952 2°39.54 21.8304 0.011748 0.062907 -1.627401
2008-06-25 08:25:49 51°18.958 2°39.558 21.8359 0.011748 0.06291 -1.627401
2008-06-25 08:26:49 51°18.965 2°39.576 21.8701 0.011748 0.062914 -1.627401
2008-06-25 08:27:49 51°18.972 2°39.595 21.8499 0.011748 0.062918 -1.627401
2008-06-25 08:28:49 51°18.978 2°39.613 21.9076 0.011748 0.062922 -1.627401
2008-06-25 08:29:49 51°18.985 2°39.633 21.8881 0.011748 0.062925 -1.627401
2008-06-25 08:30:49 51°18.992 2°39.651 21.8504 0.011748 0.062928 -1.627401
2008-06-25 08:31:49 51°18.997 2°39.669 21.9425 0.011748 0.062932 -1.627401
2008-06-25 08:32:49 51°18.998 2°39.689 21.8991 0.011748 0.062936 -1.627401
2008-06-25 08:33:49 51°18.979 2°39.701 21.8887 0.011748 0.06294 -1.627401
2008-06-25 08:34:49 51°18.956 2°39.683 21.9079 0.011748 0.062943 -1.627401
2008-06-25 08:35:49 51°18.934 2°39.638 21.9268 0.011748 0.062946 -1.627401
2008-06-25 08:36:49 51°18.912 2°39.597 21.9196 0.011748 0.062947 -1.627401
2008-06-25 08:37:49 51°18.909 2°39.603 21.893 0.011748 0.06295 -1.627401
2008-06-25 08:38:49 51°18.912 2°39.619 21.9101 0.011748 0.062953 -1.627401
2008-06-25 08:39:49 51°18.916 2°39.639 21.9507 0.011748 0.062957 -1.627401
2008-06-25 08:40:49 51°18.92 2°39.659 21.9335 0.011748 0.062962 -1.627401
2008-06-25 08:41:49 51°18.924 2°39.678 21.9518 0.011748 0.062968 -1.627401
2008-06-25 08:42:49 51°18.927 2°39.696 21.9284 0.011748 0.062972 -1.627401
2008-06-25 08:43:49 51°18.931 2°39.714 21.9444 0.011748 0.062978 -1.627401
2008-06-25 08:44:49 51°18.935 2°39.733 21.9476 0.011748 0.062982 -1.627401
2008-06-25 08:45:49 51°18.939 2°39.751 21.9424 0.011953 0.063999 -1.627401
2008-06-25 08:46:49 51°18.944 2°39.769 21.9284 0.011748 0.06299 -1.627401
2008-06-25 08:47:49 51°18.949 2°39.786 21.9422 0.011748 0.062994 -1.662225
2008-06-25 08:48:49 51°18.954 2°39.801 21.9737 0.011748 0.062997 -1.627401
2008-06-25 08:49:49 51°18.96 2°39.815 21.9578 0.011748 0.063001 -1.627401
2008-06-25 08:50:49 51°18.967 2°39.83 21.9589 0.011748 0.063004 -1.627401
2008-06-25 08:51:49 51°18.974 2°39.844 21.9848 0.011748 0.063008 -1.627401
2008-06-25 08:52:49 51°18.982 2°39.858 22.0161 0.011748 0.063011 -1.627401
2008-06-25 08:53:49 51°18.99 2°39.873 22.0251 0.011748 0.063014 -1.627401
2008-06-25 08:54:49 51°18.998 2°39.886 21.9979 0.011748 0.063017 -1.627401
2008-06-25 08:55:49 51°19.006 2°39.898 22.0107 0.011748 0.063019 -1.627401
2008-06-25 08:56:49 51°19.014 2°39.911 22.0059 0.011748 0.063022 -1.627401
2008-06-25 08:57:49 51°19.023 2°39.924 21.9921 0.011748 0.063025 -1.627401
2008-06-25 08:58:49 51°19.02 2°39.941 21.9813 0.011748 0.063027 -1.627401
2008-06-25 08:59:49 51°18.98 2°39.887 22.0438 0.011748 0.06303 -1.627401
2008-06-25 09:00:49 51°19.005 2°39.786 22.0816 0.011748 0.063034 -1.627401
2008-06-25 09:01:49 51°19.034 2°39.675 22.0869 0.011748 0.063037 -1.627401
2008-06-25 09:02:49 51°19.023 2°39.611 22.0392 0.011748 0.063038 -1.627401
2008-06-25 09:03:49 51°19.025 2°39.61 22.0307 0.011748 0.06304 -1.627401
2008-06-25 09:04:49 51°19.034 2°39.623 22.0311 0.011748 0.063043 -1.627401
2008-06-25 09:05:49 51°19.042 2°39.635 22.0586 0.011748 0.063045 -1.627401
2008-06-25 09:06:49 51°19.05 2°39.648 22.0274 0.011748 0.063048 -1.627401
2008-06-25 09:07:49 51°19.057 2°39.661 22.0483 0.011748 0.063053 -1.627401
2008-06-25 09:08:49 51°19.065 2°39.672 22.0748 0.011748 0.063057 -1.627401
2008-06-25 09:09:49 51°19.073 2°39.684 22.0623 0.011748 0.063062 -1.627401
2008-06-25 09:10:49 51°19.081 2°39.694 22.0764 0.011748 0.063066 -1.627401
2008-06-25 09:11:49 51°19.09 2°39.705 22.0755 0.011748 0.063068 -1.627401
2008-06-25 09:12:49 51°19.1 2°39.717 22.1059 0.011748 0.063072 -1.627401
2008-06-25 09:13:49 51°19.109 2°39.729 22.0795 0.011748 0.063075 -1.627401
2008-06-25 09:14:49 51°19.117 2°39.741 22.1108 0.011748 0.063079 -1.627401
2008-06-25 09:15:49 51°19.104 2°39.761 22.0705 0.011748 0.063081 -1.627401
2008-06-25 09:16:49 51°19.036 2°39.672 22.117 0.011748 0.063084 -1.627401
2008-06-25 09:17:49 51°19.041 2°39.43 22.0882 0.011748 0.06309 -1.627401
2008-06-25 09:18:49 51°19.037 2°39.206 22.1206 0.011748 0.063095 -1.627401
2008-06-25 09:19:49 51°19.025 2°39.072 22.1841 0.011748 0.063099 -1.627401
2008-06-25 09:20:49 51°18.995 2°39.008 22.1316 0.011748 0.063103 -1.627401
2008-06-25 09:21:49 51°18.971 2°38.991 22.1258 0.011748 0.063107 -1.627401
2008-06-25 09:22:49 51°18.956 2°38.99 22.1355 0.011748 0.063114 -1.627401
2008-06-25 09:23:49 51°18.947 2°38.997 22.1279 0.011748 0.063122 -1.627401
2008-06-25 09:24:49 51°18.942 2°39.011 22.1567 0.011748 0.063129 -1.627401
2008-06-25 09:25:49 51°18.941 2°39.027 22.1399 0.011748 0.063135 -1.627401
2008-06-25 09:26:49 51°18.942 2°39.042 22.119 0.011748 0.06314 -1.627401
2008-06-25 09:27:49 51°18.946 2°39.058 22.1377 0.011748 0.063146 -1.627401
2008-06-25 09:28:49 51°18.949 2°39.072 22.1609 0.011748 0.063152 -1.627401
2008-06-25 09:29:49 51°18.954 2°39.086 22.1492 0.011748 0.063157 -1.627401
2008-06-25 09:30:49 51°18.935 2°39.128 22.1911 0.011748 0.063161 -1.627401
2008-06-25 09:31:49 51°18.939 2°39.215 22.2197 0.011748 0.063168 -1.627401
2008-06-25 09:32:49 51°18.979 2°39.255 22.2359 0.011748 0.063173 -1.627401
2008-06-25 09:33:49 51°19.018 2°39.265 22.247 0.011748 0.063175 -1.627401
2008-06-25 09:34:49 51°19.049 2°39.264 22.2615 0.011748 0.063179 -1.627401
2008-06-25 09:35:49 51°19.077 2°39.261 22.2088 0.011748 0.063184 -1.627401
2008-06-25 09:36:49 51°19.097 2°39.258 22.2681 0.011748 0.063193 -1.627401
2008-06-25 09:37:49 51°19.114 2°39.257 22.2781 0.011748 0.063201 -1.627401
2008-06-25 09:38:49 51°19.129 2°39.254 22.2679 0.011748 0.06321 -1.627401
2008-06-25 09:39:49 51°19.146 2°39.247 22.2496 0.011748 0.063219 -1.627401
2008-06-25 09:40:49 51°19.203 2°39.289 22.2055 0.011748 0.063227 -1.662225
2008-06-25 09:41:49 51°19.147 2°39.382 22.2725 0.011748 0.063236 -1.627401
2008-06-25 09:42:49 51°19.01 2°39.372 22.2265 0.011748 0.063246 -1.627401
2008-06-25 09:43:49 51°18.865 2°39.341 22.2179 0.011748 0.063253 -1.627401
2008-06-25 09:44:49 51°18.798 2°39.388 22.239 0.011748 0.063261 -1.627401
2008-06-25 09:45:49 51°18.827 2°39.465 22.2624 0.011748 0.06327 -1.627401
2008-06-25 09:46:49 51°18.864 2°39.478 22.2821 0.011748 0.063276 -1.627401
2008-06-25 09:47:49 51°18.889 2°39.473 22.3066 0.011748 0.063282 -1.627401
2008-06-25 09:48:49 51°18.907 2°39.463 22.309 0.011748 0.063295 -1.627401
2008-06-25 09:49:49 51°18.92 2°39.455 22.3154 0.011748 0.063309 -1.627401
2008-06-25 09:50:49 51°18.93 2°39.449 22.3188 0.011748 0.06332 -1.627401
2008-06-25 09:51:49 51°18.939 2°39.447 22.3273 0.011748 0.063331 -1.627401
2008-06-25 09:52:49 51°18.948 2°39.448 22.3287 0.011748 0.063343 -1.627401
2008-06-25 09:53:49 51°18.954 2°39.449 22.3377 0.011748 0.063353 -1.627401
2008-06-25 09:54:49 51°18.96 2°39.452 22.3412 0.011748 0.063367 -1.627401
2008-06-25 09:55:49 51°18.964 2°39.456 22.3505 0.011748 0.063381 -1.627401
2008-06-25 09:56:49 51°18.967 2°39.459 22.3516 0.011748 0.063395 -1.627401
2008-06-25 09:57:49 51°18.97 2°39.462 22.361 0.011748 0.063408 -1.627401
2008-06-25 09:58:49 51°18.972 2°39.465 22.3638 0.011748 0.06342 -1.627401
2008-06-25 09:59:49 51°18.975 2°39.468 22.3672 0.011748 0.063433 -1.627401
2008-06-25 10:00:49 51°18.978 2°39.47 22.3731 0.011748 0.063444 -1.627401
2008-06-25 10:01:49 51°18.981 2°39.471 22.3746 0.011748 0.063453 -1.627401
2008-06-25 10:02:49 51°18.983 2°39.473 22.3806 0.011748 0.063465 -1.627401
2008-06-25 10:03:49 51°18.986 2°39.475 22.381 0.011748 0.063473 -1.627401
2008-06-25 10:04:49 51°19.016 2°39.478 22.3075 0.011748 0.063487 -1.627401
2008-06-25 10:05:49 51°19.034 2°39.615 22.3492 0.011748 0.063496 -1.627401
2008-06-25 10:06:49 51°19.016 2°39.9 22.3069 0.011748 0.063508 -1.627401
2008-06-25 10:07:49 51°18.981 2°40.2 22.3354 0.011748 0.063508 -1.627401
2008-06-25 10:08:49 51°18.935 2°40.49 22.3167 0.011748 0.063506 -1.627401
2008-06-25 10:09:49 51°18.88 2°40.773 22.3456 0.011748 0.063502 -1.627401
2008-06-25 10:10:49 51°18.815 2°41.057 22.3423 0.011748 0.063499 -1.627401
2008-06-25 10:11:49 51°18.745 2°41.34 22.345 0.011748 0.063495 -1.627401
2008-06-25 10:12:49 51°18.682 2°41.632 22.3147 0.011748 0.063491 -1.627401
2008-06-25 10:13:49 51°18.62 2°41.925 22.3504 0.011748 0.063492 -1.627401
2008-06-25 10:14:49 51°18.567 2°42.174 22.3685 0.011748 0.063489 -1.627401
2008-06-25 10:15:49 51°18.544 2°42.398 22.368 0.011748 0.063485 -1.627401
2008-06-25 10:16:49 51°18.549 2°42.62 22.3881 0.011748 0.063483 -1.627401
2008-06-25 10:17:49 51°18.562 2°42.843 22.3601 0.011748 0.063481 -1.627401
2008-06-25 10:18:49 51°18.549 2°43.029 22.3811 0.011748 0.063477 -1.627401
2008-06-25 10:19:49 51°18.511 2°43.114 22.365 0.011748 0.063474 -1.627401
2008-06-25 10:20:49 51°18.487 2°43.141 22.3606 0.011748 0.063473 -1.627401
2008-06-25 10:21:49 51°18.476 2°43.146 22.3677 0.011748 0.063473 -1.627401
2008-06-25 10:22:49 51°18.474 2°43.151 22.3844 0.011748 0.063473 -1.627401
2008-06-25 10:23:49 51°18.474 2°43.153 22.3974 0.011748 0.063472 -1.627401
2008-06-25 10:24:49 51°18.473 2°43.158 22.413 0.011748 0.063472 -1.627401
2008-06-25 10:25:49 51°18.469 2°43.161 22.4256 0.011748 0.063472 -1.627401
2008-06-25 10:26:49 51°18.467 2°43.166 22.4136 0.011748 0.063472 -1.627401
2008-06-25 10:27:49 51°18.451 2°43.212 22.4417 0.011748 0.063473 -1.627401
2008-06-25 10:28:49 51°18.479 2°43.279 22.4538 0.011748 0.063474 -1.627401
2008-06-25 10:29:49 51°18.504 2°43.309 22.4663 0.011748 0.063475 -1.627401
2008-06-25 10:30:49 51°18.505 2°43.311 22.4391 0.011748 0.063474 -1.627401
2008-06-25 10:31:49 51°18.505 2°43.314 22.3923 0.011748 0.063473 -1.627401
2008-06-25 10:32:49 51°18.501 2°43.318 22.4102 0.011748 0.063474 -1.627401
2008-06-25 10:33:49 51°18.5 2°43.317 22.4283 0.011748 0.063473 -1.627401
2008-06-25 10:34:49 51°18.496 2°43.318 22.4329 0.011748 0.063474 -1.627401
2008-06-25 10:35:49 51°18.495 2°43.319 22.4342 0.011748 0.063476 -1.627401
2008-06-25 10:36:49 51°18.495 2°43.319 22.4406 0.011748 0.063475 -1.627401
2008-06-25 10:37:49 51°18.494 2°43.322 22.4523 0.011748 0.063476 -1.627401
2008-06-25 10:38:49 51°18.487 2°43.327 22.4456 0.011748 0.063478 -1.627401
2008-06-25 10:39:49 51°18.477 2°43.328 22.4517 0.011748 0.06348 -1.627401
2008-06-25 10:40:49 51°18.476 2°43.327 22.4534 0.011748 0.063481 -1.627401
2008-06-25 10:41:49 51°18.479 2°43.328 22.4753 0.011748 0.063481 -1.627401
2008-06-25 10:42:49 51°18.483 2°43.324 22.4602 0.011748 0.063481 -1.627401
2008-06-25 10:43:49 51°18.485 2°43.325 22.4553 0.011748 0.063484 -1.627401
2008-06-25 10:44:49 51°18.485 2°43.324 22.4735 0.011748 0.063484 -1.627401
2008-06-25 10:45:49 51°18.487 2°43.324 22.4827 0.011748 0.063485 -1.627401
2008-06-25 10:46:49 51°18.478 2°43.328 22.4688 0.011748 0.063485 -1.627401
2008-06-25 10:47:49 51°18.48 2°43.324 22.4757 0.011748 0.063487 -1.627401
2008-06-25 10:48:49 51°18.483 2°43.32 22.4852 0.011748 0.063488 -1.662225
2008-06-25 10:49:49 51°18.445 2°43.352 22.4492 0.011748 0.06349 -1.627401
2008-06-25 10:50:49 51°18.298 2°43.396 22.45 0.011748 0.063493 -1.627401
2008-06-25 10:51:49 51°18.101 2°43.419 22.4771 0.011748 0.063497 -1.627401
2008-06-25 10:52:49 51°17.898 2°43.409 22.4678 0.011748 0.063502 -1.627401
2008-06-25 10:53:49 51°17.695 2°43.381 22.4844 0.011748 0.06351 -1.627401
2008-06-25 10:54:49 51°17.54 2°43.161 22.4841 0.011748 0.063515 -1.627401
2008-06-25 10:55:49 51°17.436 2°42.859 22.504 0.011748 0.063519 -1.627401
2008-06-25 10:56:49 51°17.352 2°42.538 22.4951 0.011748 0.063525 -1.627401
2008-06-25 10:57:49 51°17.277 2°42.214 22.5026 0.011748 0.063531 -1.627401
2008-06-25 10:58:49 51°17.203 2°41.928 22.5224 0.011748 0.063538 -1.627401
2008-06-25 10:59:49 51°17.16 2°41.765 22.5414 0.011748 0.063544 -1.627401
2008-06-25 11:00:49 51°17.125 2°41.64 22.5667 0.011748 0.063548 -1.627401
2008-06-25 11:01:49 51°17.076 2°41.475 22.5348 0.011748 0.063553 -1.627401
2008-06-25 11:02:49 51°17.032 2°41.323 22.5717 0.011748 0.063559 -1.627401
2008-06-25 11:03:49 51°17.008 2°41.245 22.582 0.011748 0.063564 -1.627401
2008-06-25 11:04:49 51°17.007 2°41.243 22.5492 0.011748 0.063568 -1.627401
2008-06-25 11:05:50 51°17.012 2°41.247 22.5808 0.011748 0.063573 -1.627401
2008-06-25 11:06:50 51°17.016 2°41.243 22.5869 0.011645 0.063068 -1.627401
2008-06-25 11:07:50 51°17.013 2°41.239 22.5922 0.011748 0.063586 -1.627401
2008-06-25 11:08:50 51°17.006 2°41.238 22.5689 0.011748 0.063591 -1.627401
2008-06-25 11:09:50 51°17.001 2°41.235 22.5959 0.011645 0.063082 -1.627401
2008-06-25 11:10:50 51°16.999 2°41.226 22.6051 0.011645 0.063086 -1.627401
2008-06-25 11:11:50 51°16.977 2°41.258 22.5627 0.011748 0.063601 -1.627401
2008-06-25 11:12:50 51°16.957 2°41.318 22.6111 0.011748 0.063605 -1.627401
2008-06-25 11:13:50 51°16.94 2°41.375 22.5688 0.011645 0.063093 -1.627401
2008-06-25 11:14:50 51°16.922 2°41.421 22.6 0.011645 0.063095 -1.627401
2008-06-25 11:15:50 51°16.887 2°41.497 22.5802 0.011748 0.06361 -1.627401
2008-06-25 11:16:50 51°16.815 2°41.532 22.6006 0.011748 0.063611 -1.627401
2008-06-25 11:17:50 51°16.69 2°41.539 22.5795 0.011748 0.063613 -1.627401
2008-06-25 11:18:50 51°16.537 2°41.553 22.5768 0.011748 0.063615 -1.627401
2008-06-25 11:19:50 51°16.383 2°41.565 22.5922 0.011748 0.063619 -1.627401
2008-06-25 11:20:50 51°16.205 2°41.577 22.5862 0.011748 0.063623 -1.627401
2008-06-25 11:21:50 51°16.003 2°41.593 22.6038 0.011748 0.063627 -1.627401
2008-06-25 11:22:50 51°15.8 2°41.601 22.5984 0.011748 0.063635 -1.627401
2008-06-25 11:23:50 51°15.597 2°41.614 22.6041 0.011748 0.063642 -1.627401
2008-06-25 11:24:50 51°15.417 2°41.736 22.605 0.011748 0.063662 -1.627401
2008-06-25 11:25:50 51°15.317 2°41.994 22.6048 0.011748 0.063671 -1.627401
2008-06-25 11:26:50 51°15.296 2°42.293 22.6727 0.011748 0.063675 -1.627401
2008-06-25 11:27:50 51°15.287 2°42.596 22.6353 0.011748 0.063678 -1.627401
2008-06-25 11:28:50 51°15.268 2°42.909 22.6449 0.011748 0.063679 -1.627401
2008-06-25 11:29:50 51°15.251 2°43.212 22.6659 0.011748 0.063679 -1.627401
2008-06-25 11:30:50 51°15.236 2°43.515 22.6449 0.011645 0.063164 -1.627401
2008-06-25 11:31:50 51°15.218 2°43.822 22.7057 0.011645 0.063162 -1.627401
2008-06-25 11:32:50 51°15.199 2°44.124 22.7018 0.011645 0.06316 -1.627401
2008-06-25 11:33:50 51°15.18 2°44.421 22.6667 0.011645 0.063159 -1.627401
2008-06-25 11:34:50 51°15.157 2°44.727 22.6549 0.011748 0.063671 -1.627401
2008-06-25 11:35:50 51°15.138 2°45.031 22.7359 0.011645 0.063158 -1.627401
2008-06-25 11:36:50 51°15.114 2°45.332 22.7559 0.011748 0.063672 -1.627401
2008-06-25 11:37:50 51°15.091 2°45.634 22.7312 0.011748 0.063672 -1.627401
2008-06-25 11:38:50 51°15.069 2°45.935 22.748 0.011748 0.063671 -1.627401
2008-06-25 11:39:50 51°15.051 2°46.234 22.7156 0.011748 0.063669 -1.627401
2008-06-25 11:40:50 51°15.033 2°46.535 22.7591 0.011748 0.063667 -1.627401
2008-06-25 11:41:50 51°15.014 2°46.837 22.7243 0.011748 0.063664 -1.627401
2008-06-25 11:42:50 51°14.989 2°47.141 22.7357 0.011748 0.063661 -1.627401
2008-06-25 11:43:50 51°14.978 2°47.445 22.7341 0.011748 0.063658 -1.627401
2008-06-25 11:44:50 51°14.962 2°47.751 22.7715 0.011748 0.063653 -1.627401
2008-06-25 11:45:50 51°14.946 2°48.049 22.7474 0.011748 0.063649 -1.627401
2008-06-25 11:46:50 51°14.928 2°48.354 22.7954 0.011748 0.063644 -1.627401
2008-06-25 11:47:50 51°14.911 2°48.658 22.8005 0.011748 0.063638 -1.627401
2008-06-25 11:48:50 51°14.893 2°48.959 22.7773 0.011748 0.063634 -1.627401
2008-06-25 11:49:50 51°14.875 2°49.263 22.795 0.011748 0.063628 -1.627401
2008-06-25 11:50:50 51°14.862 2°49.562 22.8302 0.011748 0.063624 -1.627401
2008-06-25 11:51:50 51°14.856 2°49.858 22.8104 0.011748 0.063619 -1.627401
2008-06-25 11:52:50 51°14.845 2°50.162 22.8543 0.011748 0.063615 -1.627401
2008-06-25 11:53:50 51°14.833 2°50.463 22.8176 0.011748 0.063611 -1.627401
2008-06-25 11:54:50 51°14.822 2°50.767 22.8735 0.011748 0.063609 -1.627401
2008-06-25 11:55:50 51°14.814 2°51.064 22.8472 0.011748 0.063605 -1.627401
2008-06-25 11:56:50 51°14.801 2°51.364 22.8543 0.011748 0.063601 -1.627401
2008-06-25 11:57:50 51°14.787 2°51.663 22.8529 0.011748 0.063599 -1.627401
2008-06-25 11:58:50 51°14.773 2°51.962 22.8793 0.011748 0.063598 -1.627401
2008-06-25 11:59:50 51°14.763 2°52.266 22.8286 0.011748 0.063595 -1.627401
2008-06-25 12:00:50 51°14.745 2°52.573 22.8874 0.011748 0.063592 -1.627401
2008-06-25 12:01:50 51°14.712 2°52.877 22.8365 0.011748 0.063589 -1.627401
2008-06-25 12:02:50 51°14.677 2°53.181 22.8651 0.011748 0.063588 -1.627401
2008-06-25 12:03:50 51°14.642 2°53.485 22.8333 0.011748 0.063585 -1.627401
2008-06-25 12:04:50 51°14.609 2°53.791 22.8521 0.011748 0.063584 -1.627401
2008-06-25 12:05:50 51°14.571 2°54.105 22.9173 0.011748 0.063581 -1.627401
2008-06-25 12:06:50 51°14.524 2°54.412 22.9419 0.011748 0.063578 -1.627401
2008-06-25 12:07:50 51°14.456 2°54.704 22.9395 0.011748 0.063575 -1.627401
2008-06-25 12:08:50 51°14.371 2°54.99 22.9521 0.011748 0.063572 -1.627401
2008-06-25 12:09:50 51°14.259 2°55.253 22.9801 0.011748 0.063569 -1.627401
2008-06-25 12:10:50 51°14.124 2°55.414 22.9858 0.011748 0.063565 -1.627401
2008-06-25 12:11:50 51°14.003 2°55.503 23.011 0.011748 0.063562 -1.627401